Location: Saint André
(43.5594°N, 1.3519°W)
Time: 04:20:28
(UTC+00:00)

Cosmos 1437 Rocket - Pass Details

Date: 22 March 2025
Orbit: 458 x 504 km, 81.2° (Epoch: 22 April)

Event Time Altitude Azimuth Distance (km) Brightness Sun altitude
Rises 20:46:25 0° 349° (N) 2,627 6.8 -26.1°
Reaches altitude 10° 20:48:34 10° 350° (N) 1,733 5.8 -26.4°
Enters shadow 20:50:26 28° 350° (N) 988 4.4 -26.7°
